sat.trackr.live / text

‹ back to catalog

STARLINK-5135

NORAD 54005 · 2022-125AT

PAYLOAD ACTIVE UNKNOWN

§ Identity

Operator
Country
US
Launch date
2022-10-05
Launch site
AFWTR
Launch vehicle
Mass (kg)
RCS (m²)

Purposes: comms

External: N2YO · Heavens-Above · Gunter

§ Orbital elements

Epoch: 2026-09-20T00:27:51.639552Z

Period
95.44 min
Inclination
53.1611°
Eccentricity
0.0001288
Mean motion
15.08823331 rev/d
Perigee alt
538.9 km
Apogee alt
540.7 km
Semi-major
6,917.9 km
B*
1.4124e-4
RAAN
60.8024°
Arg perigee
101.9270°
Mean anomaly
258.1866°
Rev number
21,880

§ Raw data

STARLINK-51351 54005U 22125AT  26263.01934768  .00001960  00000+0  14124-3 0  99932 54005  53.1611  60.8024 0001288 101.9270 258.1866 15.08823331218801

JSON: /api/v1/satellites/54005 · /tle

For live sub-satellite position, see the globe view (requires WebGL).

§ Visibility from observer

Set your observer location to see the next 7 days of passes ≥ 10°. The values pass through the URL so the page stays shareable.

No JS? Fill the form by hand. The geolocation button needs JavaScript.